Regional Weather Roundup
Issued by NWS

Home | Current Version | Previous Version | Text Only | Print | Product List | Glossary On
Versions: 1 2 3 4 5 6 7 8 9 10 11 12 13 14 15 16 17 18 19 20 21 22 23 24 25 26 27 28 29 30 31 32 33 34 35 36 37 38 39 40 41 42 43 44 45 46 47 48 49 50
000
ASUS43 KDTX 242010
RWRMI
MICHIGAN HOURLY REGIONAL WEATHER ROUNDUP
NATIONAL WEATHER SERVICE DETROIT/PONTIAC MI
ISSUED BY NATIONAL WEATHER SERVICE GRAND RAPIDS MI
400 PM EDT WED MAY 24 2017

NOTE: "FAIR" INDICATES FEW OR NO CLOUDS BELOW 12,000 FEET WITH NO
SIGNIFICANT WEATHER AND/OR OBSTRUCTION TO VISIBILITY.

MIZ047>049-052>055-059>063-066>070-074>076-081>083-242100-
SOUTHEAST LOWER MICHIGAN

CITY           SKY/WX    TMP DP  RH WIND       PRES   REMARKS
ADRIAN         CLOUDY    60  57  89 E12       29.53F
ALMA           CLOUDY    65  56  71 NE15G23   29.58S
ANN ARBOR      CLOUDY    63  60  90 NE10      29.54F
BAD AXE        CLOUDY    65  55  69 E12G17    29.62S
DETROIT CITY   CLOUDY    62  58  86 E12       29.55F
DETROIT        CLOUDY    64  59  83 E8        29.54F
FLINT          CLOUDY    70  50  49 SE12      29.55F
GROSSE ILE     CLOUDY    63  57  81 E9        29.53F
HILLSDALE      LGT RAIN  59  55  88 E10       29.52F
HOWELL         CLOUDY    66  51  58 E12       29.55F

CITY           SKY/WX    TMP DP  RH WIND       PRES   REMARKS
JACKSON        CLOUDY    64  52  64 E17G25    29.53F
LANSING        CLOUDY    67  56  67 NE12      29.55S
MASON          CLOUDY    65  58  77 E9        29.54F
MONROE         CLOUDY    64  58  81 E8G18     29.52F
MT. CLEMENS    CLOUDY    64  59  83 NE8       29.56S
PONTIAC        CLOUDY    65  51  60 E10       29.55S
PORT HOPE        N/A     52  49  89 NE13      29.62F
PORT HURON     CLOUDY    66  55  68 E8        29.59S
TRI CITIES     CLOUDY    61  54  77 NE22      29.59F
YPSILANTI      CLOUDY    65  59  81 E13       29.55S
$$
MIZ043>046-050>051-056>058-064>065-071>073-077>080-242100-
SOUTHWEST LOWER MICHIGAN

CITY           SKY/WX    TMP DP  RH WIND       PRES   REMARKS
BATTLE CREEK   LGT RAIN  65  60  84 NE7       29.52R
BENTON HARBOR  CLOUDY    60  55  83 N7        29.49S
BIG RAPIDS     CLOUDY    67  49  51 E16G22    29.57F
COLDWATER      RAIN      61  59  92 E7        29.51R
HOLLAND        MOSUNNY   70  55  59 E14       29.52F
GRAND RAPIDS   CLOUDY    70  56  61 E18       29.53F
KALAMAZOO      CLOUDY    70  55  59 VRB7G16   29.50F
MARSHALL       CLOUDY    61  60  96 E7        29.51S
MOUNT PLEASANT PTSUNNY   67  51  57 NE14G22   29.58S
MUSKEGON       CLOUDY    67  54  63 NE9       29.55F
STURGIS        CLOUDY    66  55  66 E16G23    29.48S
$$
MIZ016>042-242100-
NORTHERN LOWER MICHIGAN

CITY           SKY/WX    TMP DP  RH WIND       PRES   REMARKS
ALPENA         LGT RAIN  63  54  72 N12       29.70F
BEAVER ISLAND  CLOUDY    54  50  86 E17       29.72S
BELLAIRE       CLOUDY    67  52  58 NE14G20   29.65F
CADILLAC       PTSUNNY   67  54  62 NE13      29.61F
CHARLEVOIX     CLOUDY    61  54  76 NE10      29.71S
GAYLORD        CLOUDY    61  51  70 NE12      29.67F
HOUGHTON LAKE  CLOUDY    60  52  74 NE16      29.64F
MANISTEE       CLOUDY    58  54  86 NW7       29.62F
OSCODA         PTSUNNY   62  50  64 NE17      29.65F
PELLSTON       CLOUDY    57  50  77 E13       29.72F
TRAVERSE CITY  CLOUDY    63  54  72 N8        29.63F
LUDINGTON      CLOUDY    60  56  84 N12G18    29.59F
$$
MIZ007>008-015-242100-
EASTERN UPPER MICHIGAN

CITY           SKY/WX    TMP DP  RH WIND       PRES   REMARKS
KINROSS        CLOUDY    55  51  86 NE13      29.74S
MACKINAC ISLAN CLOUDY    54  54 100 E9        29.72S
NEWBERRY       CLOUDY    58  51  79 E7        29.73S
S. S. MARIE    CLOUDY    58  50  75 VRB6      29.74S
$$
MIZ004>006-011>014-085-242100-
CENTRAL UPPER MICHIGAN

CITY           SKY/WX    TMP DP  RH WIND       PRES   REMARKS
MANISTIQUE     CLOUDY    60  51  74 NE8       29.71F
ESCANABA       CLOUDY    56  51  84 E7        29.71F
MENOMINEE      CLOUDY    52  49  89 NE13      29.71F
SAWYER-GWINN   CLOUDY    50  45  81 NE14      29.75F
$$
MIZ001>003-009>011-084-242100-
WESTERN UPPER MICHIGAN

CITY           SKY/WX    TMP DP  RH WIND       PRES   REMARKS
IRON MOUNTAIN  CLOUDY    56  46  69 N7        29.71F
HOUGHTON       PTSUNNY   54  44  69 E9        29.78S
COPPER HARBOR    N/A     47  40  76 N3        29.79F
IRONWOOD       CLOUDY    54  44  69 N6        29.77
$$

ABBREVIATIONS USED IN REMARKS
   TC - TEMPERATURE IN CELSIUS
  WCI - WIND CHILL INDEX
   HX - HEAT INDEX
  VSB - VISIBILITY





USA.gov is the U.S. government's official web portal to all federal, state and local government web resources and services.